• In Czech Republic
  • List of Countries
  • For 7 days
  • Water Temperature
  • Satellite Maps
  • Weather Map
  • Weather Widgets
  • user-avatar
    Login

    Hourly Weather Chiquimula

    Today, 18 October, Thursday

    Time Temperature Precipitation Wind Pressure Humidity
    00:00 +21°C° 0 mm 0 mps 706 mmHg 96%
    01:00 +21°C° 0.3 mm 0 mps 706 mmHg 96%
    02:00 +20°C° 0.3 mm 0 mps 706 mmHg 96%
    03:00 +20°C° 0.3 mm 0 mps 706 mmHg 96%
    04:00 +20°C° 0.1 mm 0 mps 706 mmHg 96%
    05:00 +20°C° 0.1 mm 0 mps 706 mmHg 96%
    06:00 +20°C° 0.1 mm 0 mps 706 mmHg 96%
    07:00 +22°C° 0.1 mm 0 mps 707 mmHg 91%
    08:00 +24°C° 0.1 mm 0 mps 708 mmHg 86%
    09:00 +25°C° 0.1 mm 0 mps 708 mmHg 81%
    10:00 +28°C° 0.6 mm 1 mps 708 mmHg 79%
    11:00 +28°C° 0.6 mm 1 mps 708 mmHg 77%
    12:00 +29°C° 0.6 mm 1 mps 707 mmHg 75%
    13:00 +28°C° 1.5 mm 1 mps 707 mmHg 79%
    14:00 +28°C° 1.5 mm 1 mps 706 mmHg 82%
    15:00 +27°C° 1.5 mm 1 mps 706 mmHg 86%
    16:00 +26°C° 1.7 mm 1 mps 706 mmHg 88%
    17:00 +25°C° 1.7 mm 1 mps 706 mmHg 91%
    18:00 +24°C° 1.7 mm 1 mps 707 mmHg 94%
    19:00 +22°C° 1.1 mm 0 mps 707 mmHg 94%
    20:00 +21°C° 1.1 mm 0 mps 708 mmHg 94%
    21:00 +21°C° 1.1 mm 0 mps 708 mmHg 95%
    22:00 +21°C° 0.9 mm 0 mps 708 mmHg 95%
    23:00 +21°C° 0.9 mm 0 mps 708 mmHg 95%

    Tomorrow, 19 October, Friday

    Time Temperature Precipitation Wind Pressure Humidity
    00:00 +21°C° 0.9 mm 0 mps 708 mmHg 95%
    01:00 +21°C° 1.2 mm 0 mps 707 mmHg 95%
    02:00 +21°C° 1.2 mm 0 mps 707 mmHg 95%
    03:00 +21°C° 1.2 mm 0 mps 707 mmHg 95%
    04:00 +20°C° 0.7 mm 0 mps 707 mmHg 95%
    05:00 +20°C° 0.7 mm 0 mps 707 mmHg 95%
    06:00 +20°C° 0.7 mm 0 mps 707 mmHg 95%
    07:00 +21°C° 0.2 mm 0 mps 708 mmHg 92%
    08:00 +23°C° 0.2 mm 0 mps 708 mmHg 89%
    09:00 +24°C° 0.2 mm 0 mps 709 mmHg 86%
    10:00 +25°C° 0.2 mm 0 mps 709 mmHg 80%
    11:00 +28°C° 0.2 mm 1 mps 708 mmHg 74%
    12:00 +29°C° 0.2 mm 1 mps 708 mmHg 67%
    13:00 +29°C° 0.4 mm 1 mps 707 mmHg 70%
    14:00 +28°C° 0.4 mm 1 mps 707 mmHg 72%
    15:00 +28°C° 0.4 mm 1 mps 706 mmHg 74%
    16:00 +26°C° 0.3 mm 1 mps 706 mmHg 79%
    17:00 +25°C° 0.3 mm 1 mps 706 mmHg 84%
    18:00 +24°C° 0.3 mm 1 mps 706 mmHg 89%
    19:00 +24°C° 0.3 mm 1 mps 707 mmHg 89%
    20:00 +24°C° 0.3 mm 1 mps 707 mmHg 90%
    21:00 +23°C° 0.3 mm 1 mps 708 mmHg 91%
    22:00 +23°C° 0.2 mm 1 mps 708 mmHg 91%
    23:00 +23°C° 0.2 mm 1 mps 708 mmHg 91%

    Day after tomorrow, 20 October, Saturday

    Time Temperature Precipitation Wind Pressure Humidity
    00:00 +22°C° 0.2 mm 1 mps 707 mmHg 91%
    01:00 +22°C° 0.1 mm 1 mps 707 mmHg 91%
    02:00 +22°C° 0.1 mm 1 mps 707 mmHg 91%
    03:00 +22°C° 0.1 mm 1 mps 706 mmHg 90%
    04:00 +22°C° 0.1 mm 1 mps 706 mmHg 90%
    05:00 +22°C° 0.1 mm 1 mps 707 mmHg 90%
    06:00 +21°C° 0.1 mm 1 mps 707 mmHg 90%
    07:00 +24°C° 0 mm 1 mps 707 mmHg 83%
    08:00 +26°C° 0 mm 1 mps 708 mmHg 75%
    09:00 +28°C° 0 mm 1 mps 709 mmHg 68%
    10:00 +29°C° 0 mm 1 mps 708 mmHg 65%
    11:00 +30°C° 0 mm 1 mps 708 mmHg 61%
    12:00 +32°C° 0 mm 1 mps 707 mmHg 57%
    13:00 +31°C° 0.8 mm 1 mps 707 mmHg 63%
    14:00 +30°C° 0.8 mm 2 mps 706 mmHg 68%
    15:00 +30°C° 0.8 mm 2 mps 705 mmHg 74%
    16:00 +28°C° 1.8 mm 1 mps 705 mmHg 80%
    17:00 +26°C° 1.8 mm 1 mps 705 mmHg 85%
    18:00 +25°C° 1.8 mm 1 mps 706 mmHg 91%
    19:00 +24°C° 1.6 mm 1 mps 706 mmHg 92%
    20:00 +24°C° 1.6 mm 1 mps 707 mmHg 93%
    21:00 +24°C° 1.6 mm 1 mps 708 mmHg 94%
    22:00 +24°C° 0.7 mm 1 mps 708 mmHg 94%
    23:00 +24°C° 0.7 mm 1 mps 707 mmHg 95%

    21 October, Sunday

    Time Temperature Precipitation Wind Pressure Humidity
    00:00 +24°C° 0.7 mm 1 mps 707 mmHg 95%
    01:00 +23°C° 0.3 mm 1 mps 707 mmHg 95%
    02:00 +23°C° 0.3 mm 1 mps 707 mmHg 95%
    03:00 +23°C° 0.3 mm 1 mps 706 mmHg 95%
    04:00 +23°C° 0.1 mm 1 mps 707 mmHg 95%
    05:00 +23°C° 0.1 mm 1 mps 707 mmHg 95%
    06:00 +22°C° 0.1 mm 1 mps 707 mmHg 96%
    07:00 +24°C° 0 mm 1 mps 708 mmHg 90%
    08:00 +25°C° 0 mm 1 mps 708 mmHg 84%
    09:00 +27°C° 0 mm 2 mps 709 mmHg 78%
    10:00 +28°C° 0 mm 2 mps 709 mmHg 71%
    11:00 +29°C° 0 mm 2 mps 708 mmHg 65%
    12:00 +30°C° 0 mm 2 mps 708 mmHg 59%
    13:00 +30°C° 0 mm 2 mps 707 mmHg 58%
    14:00 +31°C° 0 mm 2 mps 706 mmHg 57%
    15:00 +31°C° 0 mm 2 mps 706 mmHg 56%
    16:00 +29°C° 0.1 mm 2 mps 706 mmHg 65%
    17:00 +26°C° 0.1 mm 2 mps 706 mmHg 74%
    18:00 +24°C° 0.1 mm 1 mps 706 mmHg 83%
    19:00 +24°C° 0.1 mm 1 mps 707 mmHg 86%
    20:00 +23°C° 0.1 mm 1 mps 708 mmHg 89%
    21:00 +23°C° 0.1 mm 1 mps 708 mmHg 92%
    22:00 +22°C° 0 mm 1 mps 708 mmHg 93%
    23:00 +22°C° 0 mm 1 mps 708 mmHg 94%

    22 October, Monday

    Time Temperature Precipitation Wind Pressure Humidity
    00:00 +22°C° 0 mm 1 mps 708 mmHg 95%
    01:00 +22°C° 0 mm 1 mps 707 mmHg 95%
    02:00 +22°C° 0 mm 1 mps 707 mmHg 95%
    03:00 +21°C° 0 mm 1 mps 707 mmHg 95%
    04:00 +21°C° 0 mm 1 mps 707 mmHg 95%
    05:00 +21°C° 0 mm 1 mps 707 mmHg 95%
    06:00 +21°C° 0 mm 1 mps 708 mmHg 95%
    07:00 +23°C° 0 mm 1 mps 708 mmHg 87%
    08:00 +25°C° 0 mm 1 mps 709 mmHg 79%
    09:00 +27°C° 0 mm 1 mps 710 mmHg 71%
    10:00 +28°C° 0 mm 2 mps 709 mmHg 66%
    11:00 +30°C° 0 mm 2 mps 709 mmHg 61%
    12:00 +31°C° 0 mm 2 mps 708 mmHg 57%
    13:00 +31°C° 0.2 mm 2 mps 708 mmHg 59%
    14:00 +30°C° 0.2 mm 2 mps 707 mmHg 61%
    15:00 +30°C° 0.2 mm 2 mps 706 mmHg 63%
    16:00 +28°C° 0.4 mm 2 mps 707 mmHg 71%
    17:00 +26°C° 0.4 mm 1 mps 707 mmHg 79%
    18:00 +24°C° 0.4 mm 1 mps 707 mmHg 87%
    19:00 +24°C° 0 mm 1 mps 707 mmHg 90%
    20:00 +23°C° 0 mm 1 mps 708 mmHg 92%
    21:00 +22°C° 0 mm 1 mps 708 mmHg 95%
    22:00 +22°C° 0 mm 1 mps 708 mmHg 95%
    23:00 +22°C° 0 mm 1 mps 708 mmHg 96%

    23 October, Tuesday

    Time Temperature Precipitation Wind Pressure Humidity
    00:00 +22°C° 0 mm 1 mps 708 mmHg 96%
    01:00 +22°C° 0 mm 1 mps 708 mmHg 96%
    02:00 +22°C° 0 mm 1 mps 707 mmHg 96%
    03:00 +22°C° 0 mm 1 mps 707 mmHg 96%
    04:00 +21°C° 0 mm 1 mps 707 mmHg 96%
    05:00 +21°C° 0 mm 1 mps 708 mmHg 95%
    06:00 +21°C° 0 mm 1 mps 708 mmHg 95%
    07:00 +23°C° 0 mm 1 mps 709 mmHg 86%
    08:00 +25°C° 0 mm 1 mps 709 mmHg 78%
    09:00 +28°C° 0 mm 1 mps 710 mmHg 69%
    10:00 +29°C° 0 mm 1 mps 709 mmHg 63%
    11:00 +30°C° 0 mm 1 mps 709 mmHg 57%
    12:00 +32°C° 0 mm 2 mps 708 mmHg 51%
    13:00 +32°C° 0 mm 2 mps 707 mmHg 52%
    14:00 +31°C° 0 mm 2 mps 707 mmHg 53%
    15:00 +31°C° 0 mm 2 mps 706 mmHg 54%
    16:00 +29°C° 0.1 mm 2 mps 707 mmHg 64%
    17:00 +27°C° 0.1 mm 1 mps 707 mmHg 74%
    18:00 +25°C° 0.1 mm 1 mps 707 mmHg 83%
    19:00 +24°C° 0.1 mm 1 mps 707 mmHg 87%
    20:00 +23°C° 0.1 mm 1 mps 708 mmHg 90%
    21:00 +23°C° 0.1 mm 1 mps 708 mmHg 93%
    22:00 +22°C° 0 mm 1 mps 708 mmHg 94%
    23:00 +22°C° 0 mm 1 mps 708 mmHg 95%
    Show more